Ellsworth AFB, SD

11:51 PM MST on February 19, 2018 (GMT -0700)
Ellsworth Air Force Base

Weather History for KRCA - October, 2013

Change the Weather History Date:

Tuesday, October 8, 2013

  Actual Average Record
Temperature  
Mean Temperature 50 °F -  
Max Temperature 63 °F 62 °F 80 °F (2010)
Min Temperature 41 °F 38 °F 24 °F (2000)
Degree Days  
Heating Degree Days 16    
Moisture  
Dew Point 33 °F    
Average Humidity 50    
Maximum Humidity 70    
Minimum Humidity 33    
Precipitation  
Precipitation 0.00 in - - ()
Sea Level Pressure  
Sea Level Pressure 29.75 in    
Wind  
Wind Speed 9 mph (NNW)    
Max Wind Speed 21 mph    
Max Gust Speed 30 mph    
Visibility 10 miles    
Events      
Averages and records for this station are not official NWS values.
T = Trace of Precipitation, MM = Missing Value Source: NWS Daily Summary

Daily Weather History Graph

Daily Weather History Graph

Search for Another Location

Airport or City:

Trip Planner

Search our weather history database for the weather conditions in past years. The results will help you decide how hot, cold, wet, or windy it might be!

Date:

Astronomy

Oct. 08, 2013 Rise Set
Actual Time 6:58 AM MDT 6:20 PM MDT
Civil Twilight 6:29 AM MDT 6:48 PM MDT
Nautical Twilight 5:56 AM MDT 7:22 PM MDT
Astronomical Twilight 5:22 AM MDT 7:55 PM MDT
Moon 11:03 AM MDT (10/8) 8:50 PM MDT (10/8)
Length of Visible Light 12h 19m
Length of Day
11h 21m
Waxing Crescent, 16% of the Moon is Illuminated
Oct 8
Waxing Crescent
Oct 11
First Quarter
Oct 18
Full
Oct 26
Last Quarter
Nov 3
New

Hourly Weather History & Observations

Time (MDT) Temp. Windchill Dew Point Humidity Pressure Visibility Wind Dir Wind Speed Gust Speed Precip Events Conditions
12:58 AM 58.1 °F - 29.7 °F 34% 29.67 in 10.0 mi South 6.9 mph - N/A   Clear
1:58 AM 58.3 °F - 29.5 °F 33% 29.65 in 10.0 mi WSW 11.5 mph - N/A   Partly Cloudy
2:58 AM 55.0 °F - 29.7 °F 38% 29.64 in 10.0 mi Variable 4.6 mph - N/A   Partly Cloudy
3:58 AM 56.1 °F - 30.4 °F 38% 29.62 in 10.0 mi Variable 3.5 mph - N/A   Clear
4:58 AM 55.9 °F - 30.7 °F 38% 29.63 in 10.0 mi NW 11.5 mph - N/A   Clear
5:58 AM 49.5 °F - 32.7 °F 53% 29.67 in 10.0 mi NNE 1.2 mph - N/A   Clear
6:58 AM 47.1 °F - 33.6 °F 59% 29.71 in 10.0 mi WSW 4.6 mph - N/A   Clear
7:58 AM 41.5 °F 37.8 °F 32.5 °F 70% 29.72 in 10.0 mi WNW 5.8 mph - N/A   Partly Cloudy
8:58 AM 48.2 °F - 35.2 °F 61% 29.73 in 10.0 mi NE 3.5 mph - N/A   Clear
9:58 AM 52.3 °F - 36.3 °F 54% 29.75 in 10.0 mi North 16.1 mph - N/A   Partly Cloudy
10:58 AM 52.5 °F - 36.1 °F 54% 29.75 in 10.0 mi NNW 20.7 mph 29.9 mph N/A   Partly Cloudy
11:58 AM 55.2 °F - 33.4 °F 44% 29.75 in 10.0 mi NNW 20.7 mph - N/A   Partly Cloudy
12:28 PM 57.2 °F - 32.0 °F 38% 29.76 in 10.0 mi NNW 13.8 mph - N/A   Light Drizzle
12:37 PM 55.4 °F - 33.8 °F 44% 29.76 in 10.0 mi NNW 15.0 mph - N/A   Partly Cloudy
12:58 PM 56.1 °F - 35.2 °F 45% 29.75 in 10.0 mi NNW 11.5 mph - 0.00 in   Partly Cloudy
1:58 PM 56.5 °F - 34.3 °F 43% 29.72 in 10.0 mi North 12.7 mph - N/A   Clear
2:58 PM 57.9 °F - 33.8 °F 40% 29.74 in 10.0 mi North 12.7 mph - N/A   Clear
3:58 PM 57.4 °F - 32.7 °F 39% 29.74 in 10.0 mi North 12.7 mph - N/A   Clear
4:58 PM 55.8 °F - 34.3 °F 44% 29.76 in 10.0 mi North 10.4 mph - N/A   Clear
5:58 PM 51.8 °F - 33.8 °F 50% 29.79 in 10.0 mi North 3.5 mph - N/A   Clear
6:58 PM 45.1 °F 41.4 °F 32.0 °F 60% 29.82 in 10.0 mi WNW 6.9 mph - N/A   Clear
7:58 PM 41.4 °F 36.8 °F 32.4 °F 70% 29.86 in 10.0 mi WNW 6.9 mph - N/A   Clear
8:58 PM 41.4 °F 35.7 °F 32.4 °F 70% 29.86 in 10.0 mi NW 9.2 mph - N/A   Partly Cloudy
9:58 PM 42.6 °F 38.4 °F 32.2 °F 67% 29.86 in 10.0 mi NNW 6.9 mph - N/A   Overcast
10:58 PM 44.6 °F 39.7 °F 31.5 °F 60% 29.88 in 10.0 mi NNW 9.2 mph - N/A   Overcast
11:58 PM 48.4 °F - 32.0 °F 53% 29.87 in 10.0 mi NNW 13.8 mph - N/A   Mostly Cloudy